[[{"header":{"parameterUnit":"m.s-1","parameterCategory":1,"la1":30.2991,"la2":30.254,"lo1":-89.0895,"lo2":-89.0444,"dy":0.0017,"dx":0.0017,"nx":28,"ny":28,"refTime":"2025-03-30T03:00:00:Z","depth":0,"parameterNumber":2,"parameterNumberName":"U-component_of_WINDS"},"data":[0,0,0,0,0,0,0,0,0,0,0,0,0,0,0,0,0,0,0,0,0,0,0,0,0,0,0,0,0,0,0,0,0,0,0,0,0,0,0,0,0,0,0,0,0,0,0,0,0,0,0,0,0,0,0,0,0,0,2.222,2.222,0,2.2232,2.2233,2.2233,2.224,2.224,2.224,2.224,2.2254,2.2254,2.2254,0,0,0,0,0,0,0,0,0,0,0,0,0,2.2208,2.2208,2.222,2.2221,2.2221,2.2232,2.2233,2.2233,2.224,2.224,2.224,2.224,2.2254,2.2254,2.2254,0,0,0,0,0,0,0,0,0,0,0,0,0,2.2216,2.2208,2.222,2.2226,2.2226,2.2232,2.2233,2.2233,2.224,2.224,2.224,2.224,2.2253,2.2254,2.2254,2.2257,0,0,2.2256,2.2256,0,0,0,0,0,0,0,0,2.2215,2.2216,2.2225,2.2225,2.2226,2.2235,2.2233,2.2241,2.224,2.2235,2.224,2.224,2.2247,2.2248,2.2251,2.2257,2.2258,2.2256,2.2256,2.2257,2.2257,0,0,0,0,0,0,0,2.2215,2.2216,2.2225,2.2225,2.2226,2.2229,2.223,2.2235,2.2241,2.2235,2.2236,2.2237,2.2248,2.225,2.2251,2.2258,2.2256,2.2256,2.2257,2.2257,2.2272,2.2272,0,0,0,0,0,0,2.2213,2.2215,2.2225,2.2226,2.2221,2.2229,2.223,2.2232,2.2241,2.2242,2.2237,2.2237,2.2249,2.225,2.2251,2.2257,2.2256,2.2257,2.2257,2.2272,2.2272,2.2272,0,0,0,0,0,0,2.2213,2.2214,2.2224,2.2221,2.2222,2.2229,2.2231,2.2232,2.2234,2.2242,2.2243,2.2238,2.2249,2.2251,2.2256,2.2258,2.2257,2.2258,2.2272,2.2272,2.2272,2.2267,0,0,0,0,0,0,2.2212,2.2214,2.2213,2.2221,2.2222,2.2227,2.2231,2.2232,2.2235,2.2236,2.2243,2.2245,2.2249,2.2255,2.2257,2.2258,2.2258,2.2272,2.2272,2.2272,2.2267,2.2267,2.2267,0,0,0,0,0,2.2212,2.2211,2.2213,2.2214,2.2222,2.2227,2.2229,2.2234,2.2235,2.2236,2.2242,2.2244,2.2258,2.2256,2.2257,2.2259,2.2271,2.2272,2.2272,2.2267,2.2267,2.2267,0,0,0,0,0,0,2.2202,2.2211,2.2214,2.2215,2.2221,2.2229,2.2229,2.2233,2.2238,2.2238,2.2245,2.2247,2.2252,2.2256,2.2254,2.2264,2.2265,2.2266,2.2261,2.2261,2.2261,2.226,2.2258,0,0,0,0,0,2.2201,2.2204,2.2212,2.2212,2.2215,2.2222,2.2224,2.2228,2.2234,2.2236,2.2242,2.2248,2.2255,2.2258,2.2264,2.2268,2.2272,2.2271,2.2271,2.2271,2.2271,2.2277,2.2278,2.2273,2.2273,2.2273,0,0,2.2197,2.2202,2.2203,2.221,2.2215,2.2219,2.2223,2.2227,2.2231,2.2237,2.2243,2.2248,2.2256,2.2262,2.2265,2.2265,2.2274,2.2271,2.2271,2.2271,2.2278,2.2278,2.2279,2.2273,2.2273,2.2273,0,0,2.2192,2.2195,2.2197,2.2203,2.221,2.2215,2.2216,2.2225,2.2228,2.2234,2.224,2.2246,2.2255,2.2262,2.2266,2.2269,2.2273,2.227,2.227,2.2276,2.2276,2.2277,2.228,2.2281,2.2271,2.2271,2.2271,0,2.2186,2.2192,2.2198,2.2202,2.2207,2.2214,2.2217,2.2222,2.2231,2.2235,2.2236,2.225,2.2255,2.2265,2.2266,2.2269,2.2272,2.2269,2.2276,2.2276,2.2277,2.228,2.2281,2.2271,2.2271,2.2271,2.2271,0,2.2185,2.219,2.2191,2.22,2.2205,2.2209,2.2218,2.2222,2.2227,2.2233,2.2241,2.2249,2.2258,2.226,2.2264,2.2272,2.2272,2.2274,2.2275,2.2277,2.228,2.2281,2.227,2.227,2.227,2.2271,0,0,2.2172,2.2188,2.2188,2.2194,2.2205,2.2209,2.2215,2.2225,2.2229,2.2236,2.2243,2.2253,2.2256,2.2261,2.2267,2.2272,2.2277,2.2274,2.2275,2.2276,2.2289,2.2288,2.2289,2.228,2.2281,2.2281,2.2289,0,2.217,2.218,2.2188,2.2195,2.2201,2.221,2.2216,2.2224,2.2231,2.2239,2.2247,2.2254,2.2257,2.2261,2.2267,2.2275,2.228,2.2275,2.2288,2.2289,2.2286,2.229,2.2288,2.2295,2.229,2.229,2.229,0,2.2167,2.2175,2.2184,2.2198,2.2201,2.2205,2.2216,2.2223,2.2234,2.2239,2.2247,2.2253,2.2263,2.2264,2.2278,2.2275,2.2281,2.2287,2.2287,2.2289,2.2289,2.2293,2.2297,2.2299,2.2292,2.2292,2.2292,0,2.2159,2.2172,2.218,2.2185,2.22,2.2204,2.2211,2.2222,2.2228,2.2239,2.2244,2.2255,2.2261,2.2271,2.2281,2.2281,2.2296,2.2297,2.2302,2.2302,2.2304,2.2304,2.231,2.2307,2.2307,2.2307,2.2307,0,2.2156,2.2161,2.2177,2.2181,2.2189,2.22,2.2207,2.2215,2.2226,2.2234,2.2243,2.225,2.2263,2.2274,2.2282,2.2295,2.2297,2.2303,2.2305,2.2302,2.2302,2.2307,2.2307,2.2307,2.2307,2.2307,2.2307,0,2.2147,2.2157,2.2167,2.2182,2.2186,2.2191,2.2205,2.2212,2.2221,2.2231,2.2234,2.2248,2.2261,2.2273,2.229,2.2296,2.2309,2.2311,2.2305,2.2306,2.2311,2.2311,2.2322,2.2325,2.2318,2.2319,2.2319,0,2.2144,2.2149,2.2165,2.2172,2.2179,2.2188,2.2195,2.2207,2.2215,2.2231,2.2236,2.225,2.2261,2.2282,2.2294,2.2308,2.2312,2.2315,2.2314,2.2312,2.2314,2.2314,2.2316,2.2314,2.2314,2.2314,2.2314,0,2.2138,2.2145,2.2154,2.2167,2.2176,2.2187,2.2198,2.2203,2.2217,2.2226,2.2239,2.2249,2.2267,2.2282,2.2298,2.2307,2.2314,2.2315,2.2317,2.2314,2.2311,2.2315,2.2306,2.2314,2.2314,2.2314,2.2314,2.2314,2.2133,2.2139,2.2153,2.2165,2.2175,2.2186,2.2194,2.2205,2.2216,2.2233,2.224,2.2254,2.227,2.2292,2.2302,2.2315,2.2316,2.2319,2.232,2.232,2.2321,2.2309,2.2318,2.2318,2.2318,2.2318,2.2318,0,2.213,2.214,2.2151,2.2167,2.2178,2.2184,2.2198,2.2206,2.2219,2.2232,2.2245,2.2262,2.2278,2.2293,2.231,2.2318,2.2322,2.2322,2.2321,2.2324,2.2318,2.2315,2.2318,2.2318,2.2318,2.2318,2.2318,2.2318,2.2129,2.214,2.2149,2.2167,2.2178,2.2192,2.22,2.2211,2.2223,2.2242,2.2255,2.2265,2.2281,2.2299,2.2315,2.2319,2.2326,2.2325,2.2331,2.2324,2.2324,2.2324,2.2321,2.2326,2.2326,2.2336,2.2336,2.2336]},{"header":{"parameterUnit":"m.s-1","parameterCategory":1,"la1":30.2991,"la2":30.254,"lo1":-89.0895,"lo2":-89.0444,"dy":0.0017,"dx":0.0017,"nx":28,"ny":28,"refTime":"2025-03-30T03:00:00:Z","depth":0,"parameterNumber":3,"parameterNumberName":"V-component_of_WINDS"},"data":[0,0,0,0,0,0,0,0,0,0,0,0,0,0,0,0,0,0,0,0,0,0,0,0,0,0,0,0,0,0,0,0,0,0,0,0,0,0,0,0,0,0,0,0,0,0,0,0,0,0,0,0,0,0,0,0,0,0,3.352,3.3521,0,3.3587,3.3588,3.3588,3.3605,3.3604,3.3604,3.3604,3.3672,3.3674,3.3676,0,0,0,0,0,0,0,0,0,0,0,0,0,3.3408,3.341,3.352,3.3521,3.3521,3.3587,3.3588,3.3588,3.3605,3.3604,3.3604,3.3603,3.3671,3.3674,3.3676,0,0,0,0,0,0,0,0,0,0,0,0,0,3.3464,3.3411,3.352,3.3538,3.354,3.3586,3.3588,3.3589,3.3605,3.3604,3.3604,3.3603,3.367,3.3674,3.3677,3.371,0,0,3.3687,3.3688,0,0,0,0,0,0,0,0,3.3461,3.3468,3.3534,3.3536,3.3539,3.3587,3.3573,3.3629,3.3605,3.358,3.3604,3.3603,3.3644,3.365,3.3663,3.3713,3.3716,3.3687,3.3689,3.3691,3.3692,0,0,0,0,0,0,0,3.3457,3.3465,3.3546,3.3535,3.3538,3.3543,3.355,3.3584,3.3615,3.3582,3.3584,3.3591,3.3645,3.366,3.3665,3.3717,3.3687,3.369,3.3692,3.3693,3.3802,3.3803,0,0,0,0,0,0,3.345,3.3462,3.3544,3.3548,3.3498,3.3546,3.3554,3.3572,3.3615,3.3621,3.3592,3.3592,3.3655,3.3661,3.3668,3.3712,3.3691,3.3694,3.3696,3.3801,3.3802,3.3803,0,0,0,0,0,0,3.3448,3.3457,3.3541,3.3506,3.3517,3.3548,3.3569,3.3574,3.3589,3.3622,3.3628,3.3601,3.3655,3.3663,3.37,3.3715,3.3695,3.3698,3.38,3.3802,3.3803,3.38,0,0,0,0,0,0,3.3444,3.3456,3.3468,3.3506,3.3519,3.3572,3.357,3.3576,3.3594,3.3595,3.3632,3.3638,3.3655,3.3695,3.3704,3.3719,3.3701,3.3799,3.3801,3.3802,3.3799,3.3801,3.3803,0,0,0,0,0,3.344,3.3464,3.3469,3.3479,3.3535,3.3573,3.358,3.36,3.3595,3.3609,3.3631,3.3637,3.3712,3.3699,3.3709,3.3725,3.3798,3.38,3.3802,3.3798,3.3801,3.3803,0,0,0,0,0,0,3.3426,3.3469,3.3475,3.3511,3.3539,3.3576,3.3593,3.3601,3.363,3.3629,3.3652,3.366,3.3697,3.3714,3.37,3.3762,3.3755,3.3759,3.3749,3.3751,3.3753,3.3749,3.3704,0,0,0,0,0,3.3428,3.3455,3.3491,3.352,3.3533,3.3561,3.3578,3.3591,3.362,3.3631,3.3656,3.3684,3.3715,3.3734,3.3763,3.3802,3.3812,3.3818,3.382,3.3821,3.3825,3.385,3.3854,3.381,3.381,3.381,0,0,3.343,3.3457,3.3473,3.3518,3.354,3.357,3.357,3.36,3.3622,3.3636,3.3674,3.3693,3.3726,3.3765,3.3783,3.3781,3.3839,3.3824,3.3825,3.3828,3.3852,3.3857,3.386,3.3811,3.3811,3.3811,0,0,3.345,3.3473,3.3501,3.3524,3.3559,3.3577,3.3584,3.3621,3.3635,3.3673,3.3685,3.3712,3.3763,3.3787,3.3806,3.3839,3.3847,3.3848,3.3858,3.3883,3.3886,3.3889,3.3904,3.3908,3.3851,3.3851,3.3851,0,3.3449,3.3493,3.3514,3.3544,3.3565,3.358,3.361,3.3631,3.3673,3.3688,3.3685,3.3752,3.3774,3.3821,3.383,3.3843,3.3854,3.3844,3.3884,3.3887,3.3891,3.3905,3.391,3.3851,3.3851,3.3851,3.3851,0,3.3492,3.3522,3.3541,3.3583,3.3605,3.3635,3.3662,3.3682,3.3694,3.3713,3.3754,3.3783,3.382,3.3832,3.3842,3.3881,3.3879,3.3879,3.3873,3.3895,3.3909,3.3914,3.3851,3.3851,3.3851,3.3851,0,0,3.3503,3.3559,3.3565,3.3586,3.3627,3.3652,3.3683,3.372,3.3739,3.3768,3.3797,3.3841,3.3844,3.3865,3.3879,3.39,3.3928,3.3899,3.39,3.3905,3.3976,3.3976,3.3982,3.3934,3.3935,3.3935,3.3974,0,3.3529,3.3586,3.3608,3.3655,3.3685,3.3701,3.373,3.3759,3.3778,3.3808,3.383,3.3862,3.3861,3.3875,3.3896,3.392,3.3943,3.3918,3.3962,3.3963,3.3954,3.3989,3.3988,3.4023,3.3979,3.398,3.3981,0,3.3567,3.3599,3.365,3.3691,3.3704,3.3729,3.3767,3.3794,3.3828,3.3842,3.3867,3.3881,3.3917,3.3908,3.3959,3.3942,3.3961,3.3976,3.3978,3.3984,3.3974,3.3997,3.4034,3.404,3.3989,3.3988,3.3988,0,3.3573,3.3629,3.3667,3.3684,3.3732,3.375,3.3771,3.3804,3.3827,3.386,3.3875,3.3911,3.3932,3.396,3.3984,3.3976,3.4034,3.4027,3.4048,3.4047,3.4059,3.4059,3.4102,3.4069,3.4069,3.4069,3.4069,0,3.3601,3.3632,3.3671,3.3694,3.3731,3.3756,3.3791,3.3813,3.3844,3.3873,3.3889,3.3917,3.3946,3.3978,3.3996,3.4038,3.4046,3.4059,3.4064,3.4058,3.4057,3.4072,3.4071,3.4071,3.407,3.407,3.407,0,3.3613,3.364,3.3684,3.3727,3.3739,3.3764,3.3801,3.3826,3.3848,3.3885,3.3895,3.3929,3.3968,3.3995,3.4044,3.4057,3.4102,3.4105,3.4091,3.4093,3.4113,3.4112,3.4169,3.418,3.4138,3.4138,3.4139,0,3.3629,3.3654,3.3701,3.3722,3.3744,3.3777,3.3801,3.3828,3.3852,3.3895,3.3915,3.3955,3.3989,3.405,3.408,3.4119,3.4125,3.4142,3.413,3.4125,3.4128,3.4127,3.4131,3.4144,3.4144,3.4145,3.4145,0,3.3657,3.367,3.3703,3.3743,3.3771,3.3803,3.3835,3.3852,3.3885,3.3912,3.3952,3.3978,3.403,3.4071,3.4113,3.4135,3.4147,3.4149,3.4156,3.4151,3.4142,3.415,3.4097,3.4147,3.4147,3.4147,3.4147,3.4146,3.3673,3.3697,3.3735,3.3773,3.38,3.3831,3.3858,3.3884,3.3918,3.3963,3.3977,3.402,3.4057,3.4116,3.4139,3.4174,3.4173,3.4182,3.4185,3.4188,3.4189,3.4136,3.4181,3.4181,3.4181,3.4181,3.4181,0,3.3703,3.3729,3.3763,3.381,3.384,3.3849,3.3886,3.3911,3.3949,3.3983,3.4017,3.4066,3.4106,3.414,3.4182,3.4204,3.421,3.4214,3.4214,3.4219,3.4186,3.4177,3.4209,3.4209,3.4209,3.4209,3.4209,3.4209,3.3722,3.3764,3.3783,3.384,3.3866,3.3909,3.393,3.3959,3.3987,3.4041,3.4075,3.4098,3.4133,3.4179,3.4217,3.4226,3.4242,3.4245,3.4256,3.4224,3.4221,3.4218,3.421,3.4248,3.4248,3.4286,3.4286,3.4287]}]]